NUSTAR

Last updated on Wed Sep 09 2026 00:03:35 GMT+0000 (Coordinated Universal Time)

1 38358U 12031A 26251.66668981 .00008642 00000+0 47031-3 0 9997 2 38358 6.0258 127.6074 0008901 273.4991 276.2151 15.09484475 1305
UTC large
Height (km)
Speed (km/s)
/
Latitude / Longitude
Inclination (degrees)
Orbital Period (minutes)
Azimuth
Elevation
Range (km)
Doppler Factor

Next 0 passes for location: London (51.5072 / 0.1276)

No passes found over London.
NUSTAR